N4HAC Weather Reports


Display with metric or nautical units.
time (UTC)temp
F
wind
direction
speed
MPH
gust
MPH
rain 1hr
in
rain 24hr
in
rain mn
in
humidity
%
barometer
mb
20260504013627 45 165 0.0 1.0 0.00 0.00 0.00 69 1009.6
20260504013124 46 77 0.0 2.0 0.00 0.00 0.00 66 1009.7
20260504012621 47 91 1.0 2.0 0.00 0.00 0.00 64 1009.6
20260504012120 47 59 2.0 3.0 0.00 0.00 0.00 60 1009.5
20260504011616 48 33 2.0 3.0 0.00 0.00 0.00 58 1009.5
20260504011112 49 56 2.0 2.0 0.00 0.00 0.00 55 1009.5
20260504010608 49 225 2.0 3.0 0.00 0.00 0.00 57 1009.2
20260504010104 49 174 0.0 2.0 0.00 0.00 0.00 54 1009.4
20260504005601 49 354 0.0 1.0 0.00 0.00 0.00 52 1009.1
20260504005058 50 45 0.0 2.0 0.00 0.00 0.00 53 1009.1
20260504004556 51 11 0.0 2.0 0.00 0.00 0.00 50 1008.9
20260504004053 51 18 0.0 1.0 0.00 0.00 0.00 49 1009.2
20260504003549 53 79 2.0 2.0 0.00 0.00 0.00 47 1009.0
20260504003046 53 18 2.0 2.0 0.00 0.00 0.00 45 1008.9
20260504002542 54 2 2.0 3.0 0.00 0.00 0.00 44 1008.9
20260504002040 54 357 2.0 2.0 0.00 0.00 0.00 45 1008.9
20260504001538 55 53 2.0 3.0 0.00 0.00 0.00 42 1009.2
20260504001034 56 22 2.0 3.0 0.00 0.00 0.00 39 1008.8
20260504000531 57 39 0.0 2.0 0.00 0.00 0.00 36 1009.0
20260504000028 58 52 2.0 2.0 0.00 0.00 0.00 35 1009.0
20260503235527 58 161 1.0 2.0 0.00 0.00 0.00 33 1009.0
20260503235023 60 221 2.0 2.0 0.00 0.00 0.00 33 1009.0
20260503234521 61 156 2.0 2.0 0.00 0.00 0.00 32 1009.0
20260503234019 61 188 2.0 3.0 0.00 0.00 0.00 31 1008.9
20260503233515 61 203 2.0 4.0 0.00 0.00 0.00 30 1008.9
20260503233011 62 193 2.0 3.0 0.00 0.00 0.00 30 1008.8
20260503232508 62 188 3.0 4.0 0.00 0.00 0.00 31 1008.7
20260503232006 62 184 4.0 6.0 0.00 0.00 0.00 28 1008.9
20260503231503 62 228 5.0 6.0 0.00 0.00 0.00 30 1008.8
20260503231000 62 215 2.0 4.0 0.00 0.00 0.00 32 1008.7
20260503230456 62 211 6.0 7.0 0.00 0.00 0.00 28 1008.7
20260503225954 62 209 6.0 11.0 0.00 0.00 0.00 30 1008.7
20260503225450 62 212 9.0 10.0 0.00 0.00 0.00 29 1008.5
20260503224946 62 214 10.0 12.0 0.00 0.00 0.00 28 1008.7
20260503224443 62 228 7.0 9.0 0.00 0.00 0.00 28 1008.5
20260503223941 62 209 8.0 9.0 0.00 0.00 0.00 30 1008.6
20260503223439 62 196 9.0 13.0 0.00 0.00 0.00 29 1008.6
20260503222934 62 214 7.0 15.0 0.00 0.00 0.00 28 1008.6
20260503222433 63 169 5.0 6.0 0.00 0.00 0.00 32 1008.5
20260503221931 62 263 8.0 11.0 0.00 0.00 0.00 29 1008.7
20260503221429 63 251 7.0 11.0 0.00 0.00 0.00 29 1008.6
20260503220925 63 173 5.0 7.0 0.00 0.00 0.00 29 1008.6
20260503220421 62 212 11.0 13.0 0.00 0.00 0.00 28 1008.7
20260503215919 62 221 10.0 11.0 0.00 0.00 0.00 30 1008.6
20260503215416 63 168 6.0 10.0 0.00 0.00 0.00 27 1008.7
20260503214913 63 165 5.0 7.0 0.00 0.00 0.00 30 1008.7
20260503214410 63 242 8.0 10.0 0.00 0.00 0.00 26 1008.6
20260503213908 63 126 0.0 8.0 0.00 0.00 0.00 32 1008.6
20260503213406 62 215 5.0 12.0 0.00 0.00 0.00 30 1008.8
20260503212902 62 183 10.0 19.0 0.00 0.00 0.00 29 1008.7
20260503212400 62 165 10.0 14.0 0.00 0.00 0.00 29 1008.8
20260503211857 63 121 8.0 10.0 0.00 0.00 0.00 27 1009.1
20260503211354 62 138 7.0 9.0 0.00 0.00 0.00 31 1008.8
20260503210848 61 193 9.0 14.0 0.00 0.00 0.00 30 1008.8
20260503210346 62 210 6.0 12.0 0.00 0.00 0.00 32 1008.9
20260503205841 62 191 10.0 12.0 0.00 0.00 0.00 27 1009.1
20260503205338 62 195 6.0 14.0 0.00 0.00 0.00 29 1008.7
20260503204834 62 221 5.0 11.0 0.00 0.00 0.00 29 1008.9
20260503204332 62 206 9.0 9.0 0.00 0.00 0.00 30 1008.9
20260503203829 61 143 11.0 13.0 0.00 0.00 0.00 29 1009.1
20260503203326 62 175 9.0 16.0 0.00 0.00 0.00 30 1008.8
20260503202823 63 125 1.0 4.0 0.00 0.00 0.00 34 1008.9
20260503202321 62 200 7.0 8.0 0.00 0.00 0.00 31 1009.1
20260503201819 62 311 3.0 8.0 0.00 0.00 0.00 32 1009.2
20260503201316 62 263 2.0 9.0 0.00 0.00 0.00 37 1009.2
20260503200814 60 216 7.0 16.0 0.00 0.00 0.00 32 1009.4
20260503200309 60 180 9.0 21.0 0.00 0.00 0.00 34 1009.5
20260503195807 61 183 10.0 17.0 0.00 0.00 0.00 33 1009.4
20260503195304 61 199 14.0 18.0 0.00 0.00 0.00 31 1009.6
20260503194800 61 323 5.0 6.0 0.00 0.00 0.00 34 1009.6
20260503194256 60 150 6.0 6.0 0.00 0.00 0.00 33 1009.7
20260503193753 59 229 11.0 21.0 0.00 0.00 0.00 32 1010.0
20260503193249 61 167 9.0 9.0 0.00 0.00 0.00 33 1010.0
20260503192744 59 320 2.0 12.0 0.00 0.00 0.00 33 1010.0
20260503192240 58 242 2.0 13.0 0.00 0.00 0.00 32 1010.1
20260503191737 58 302 9.0 13.0 0.00 0.00 0.00 34 1010.3
20260503191234 57 195 6.0 16.0 0.00 0.00 0.00 33 1010.5
20260503190731 58 214 16.0 24.0 0.00 0.00 0.00 34 1010.6
20260503190227 59 220 9.0 24.0 0.00 0.00 0.00 39 1010.6
20260503185725 58 241 8.0 21.0 0.00 0.00 0.00 36 1010.6
20260503185220 58 214 11.0 16.0 0.00 0.00 0.00 38 1010.4
20260503184715 58 224 9.0 11.0 0.00 0.00 0.00 37 1010.6
20260503184211 58 157 9.0 12.0 0.00 0.00 0.00 34 1010.8
20260503183708 58 218 11.0 18.0 0.00 0.00 0.00 36 1010.8
20260503183205 58 155 8.0 13.0 0.00 0.00 0.00 38 1010.7
20260503182704 58 180 14.0 19.0 0.00 0.00 0.00 35 1010.7
20260503182202 57 222 2.0 14.0 0.00 0.00 0.00 35 1010.8
20260503181658 58 175 13.0 23.0 0.00 0.00 0.00 34 1010.8
20260503181155 56 157 10.0 12.0 0.00 0.00 0.00 36 1010.8
20260503180651 58 272 7.0 11.0 0.00 0.00 0.00 41 1010.8
20260503180150 57 213 3.0 19.0 0.00 0.00 0.00 35 1010.8
20260503175646 57 285 11.0 13.0 0.00 0.00 0.00 36 1010.8
20260503175143 56 256 12.0 20.0 0.00 0.00 0.00 35 1010.8
20260503174640 55 255 6.0 7.0 0.00 0.00 0.00 35 1010.8
20260503174137 57 269 12.0 13.0 0.00 0.00 0.00 34 1011.1
20260503173632 56 195 13.0 17.0 0.00 0.00 0.00 36 1011.3
20260503173129 56 232 9.0 23.0 0.00 0.00 0.00 39 1011.3
20260503172626 55 258 8.0 19.0 0.00 0.00 0.00 35 1011.2
20260503172124 56 219 14.0 17.0 0.00 0.00 0.00 37 1011.3
20260503171620 55 212 5.0 15.0 0.00 0.00 0.00 37 1011.5
20260503171117 57 221 11.0 13.0 0.00 0.00 0.00 41 1011.4
20260503170614 54 210 9.0 17.0 0.00 0.00 0.00 37 1011.2
20260503170111 53 214 15.0 18.0 0.00 0.00 0.00 38 1011.4
20260503151006 52 216 4.0 9.0 0.00 0.00 0.00 46 1012.1
20260503150502 52 318 2.0 12.0 0.00 0.00 0.00 41 1012.3
20260503131355 47 236 10.0 15.0 0.00 0.00 0.00 55 1012.4
20260503130853 46 244 13.0 22.0 0.00 0.00 0.00 54 1012.5
20260503130350 47 254 14.0 15.0 0.00 0.00 0.00 53 1012.6
20260503110744 42 57 1.0 2.0 0.00 0.00 0.00 73 1011.7
20260503110241 41 213 1.0 3.0 0.00 0.00 0.00 71 1011.4
20260503100207 40 192 3.0 4.0 0.00 0.00 0.00 74 1010.8
20260503090131 42 183 2.0 3.0 0.00 0.00 0.00 70 1010.3
20260503081602 42 237 3.0 4.0 0.00 0.00 0.00 68 1010.0
20260503081100 43 238 3.0 5.0 0.00 0.00 0.00 66 1010.0
20260503080555 43 279 2.0 5.0 0.00 0.00 0.00 66 1009.9
20260503072529 41 228 4.0 5.0 0.00 0.00 0.00 74 1009.8
20260503072026 41 239 3.0 6.0 0.00 0.00 0.00 73 1009.7
20260503071523 41 235 6.0 6.0 0.00 0.00 0.00 73 1009.6
20260503071020 40 239 6.0 8.0 0.00 0.00 0.00 75 1009.7
20260503070516 40 241 5.0 6.0 0.00 0.00 0.00 76 1009.5
20260503054934 44 260 2.0 6.0 0.00 0.00 0.00 64 1009.0
20260503054430 44 311 6.0 8.0 0.00 0.00 0.00 63 1009.4
20260503053928 44 5 7.0 8.0 0.00 0.00 0.00 63 1009.1
20260503053426 44 278 3.0 6.0 0.00 0.00 0.00 63 1009.2
20260503052922 45 255 4.0 9.0 0.00 0.00 0.00 62 1009.4
20260503052420 45 226 4.0 7.0 0.00 0.00 0.00 64 1009.2
20260503051916 45 305 11.0 12.0 0.00 0.00 0.00 61 1009.2
20260503051412 45 267 11.0 14.0 0.00 0.00 0.00 61 1009.1
20260503050909 45 244 7.0 7.0 0.00 0.00 0.00 61 1009.4
20260503050405 45 255 4.0 12.0 0.00 0.00 0.00 62 1009.4
20260503045903 45 274 8.0 18.0 0.00 0.00 0.00 60 1009.1
20260503045400 45 265 4.0 8.0 0.00 0.00 0.00 61 1009.4
20260503044856 45 260 3.0 7.0 0.00 0.00 0.00 61 1009.4
20260503044354 46 273 5.0 12.0 0.00 0.00 0.00 60 1009.2
20260503043851 46 331 2.0 6.0 0.00 0.00 0.00 60 1009.6
20260503043348 46 300 7.0 10.0 0.00 0.00 0.00 59 1009.5
20260503042844 46 284 7.0 10.0 0.00 0.00 0.00 58 1009.4
20260503042341 46 260 6.0 9.0 0.00 0.00 0.00 58 1009.4
20260503041836 46 265 5.0 8.0 0.00 0.00 0.00 58 1009.4
20260503041334 46 281 4.0 7.0 0.00 0.00 0.00 57 1009.4
20260503040832 47 288 4.0 7.0 0.00 0.00 0.00 57 1009.1
20260503040329 47 273 10.0 11.0 0.00 0.00 0.00 57 1009.2
20260503035826 47 300 8.0 10.0 0.00 0.00 0.00 58 1009.1
20260503035323 47 256 6.0 8.0 0.00 0.00 0.00 57 1009.0
20260503034820 47 263 5.0 6.0 0.00 0.00 0.00 57 1009.2
20260503034317 47 285 6.0 13.0 0.00 0.00 0.00 57 1009.1
20260503033815 47 280 6.0 9.0 0.00 0.00 0.00 57 1009.0
20260503033312 47 253 9.0 9.0 0.00 0.00 0.00 57 1009.0
20260503032810 47 285 8.0 16.0 0.00 0.00 0.00 56 1009.0
20260503032309 48 261 9.0 13.0 0.00 0.00 0.00 56 1008.9
20260503031805 48 314 6.0 15.0 0.00 0.00 0.00 56 1008.7
20260503031303 48 263 4.0 10.0 0.00 0.00 0.00 57 1008.9
20260503030759 48 264 4.0 8.0 0.00 0.00 0.00 56 1009.0
20260503030256 48 290 6.0 7.0 0.00 0.00 0.00 56 1009.0
20260503025752 49 329 4.0 10.0 0.00 0.00 0.00 55 1008.9
20260503025250 49 280 3.0 10.0 0.00 0.00 0.00 54 1008.9
20260503024747 49 277 5.0 10.0 0.00 0.00 0.00 54 1008.7
20260503024244 49 266 6.0 9.0 0.00 0.00 0.00 53 1008.8
20260503023741 50 310 11.0 14.0 0.00 0.00 0.00 52 1008.8
20260503023238 50 234 4.0 10.0 0.00 0.00 0.00 53 1008.8
20260503022734 50 259 7.0 16.0 0.00 0.00 0.00 52 1008.9
20260503022234 50 279 6.0 9.0 0.00 0.00 0.00 52 1008.8
20260503021731 51 275 7.0 8.0 0.00 0.00 0.00 52 1008.9
20260503021226 51 285 6.0 8.0 0.00 0.00 0.00 51 1009.0
20260503020725 51 252 7.0 13.0 0.00 0.00 0.00 50 1008.9
20260503020222 51 271 4.0 11.0 0.00 0.00 0.00 51 1008.8
20260503015718 51 267 4.0 11.0 0.00 0.00 0.00 51 1008.8
20260503015215 51 268 5.0 9.0 0.00 0.00 0.00 51 1008.8
20260503014711 51 304 6.0 8.0 0.00 0.00 0.00 50 1008.7
20260503014209 51 313 6.0 10.0 0.00 0.00 0.00 51 1008.7
20260503013706 51 296 5.0 10.0 0.00 0.00 0.00 51 1008.6